SV7GBF-2 Weather Reports


time (UTC)temp
F
wind
direction
speed
knots
gust
knots
rain 1hr
in
rain 24hr
in
rain mn
in
humidity
%
barometer
mb
20260506153404 71 0 0.0 0.0 0.00 0.00 0.00 31
20260506152403 72 0 0.0 0.0 0.00 0.00 0.00 24
20260506151403 73 0 0.0 0.0 0.00 0.00 0.00 21
20260506145404 76 0 0.0 0.0 0.00 0.00 0.00 10
20260506144404 76 0 0.0 0.0 0.00 0.00 0.00 13
20260506143404 76 0 0.0 0.0 0.00 0.00 0.00 10
20260506142404 77 0 0.0 0.0 0.00 0.00 0.00 10
20260506141403 79 0 0.0 0.0 0.00 0.00 0.00 10
20260506140403 79 0 0.0 0.0 0.00 0.00 0.00 10
20260506133403 80 0 0.0 0.0 0.00 0.00 0.00 10
20260506131403 80 0 0.0 0.0 0.00 0.00 0.00 10
20260506125404 79 0 0.0 0.0 0.00 0.00 0.00 10
20260506124405 79 0 0.0 0.0 0.00 0.00 0.00 10
20260506123403 79 0 0.0 0.0 0.00 0.00 0.00 10
20260506122404 79 0 0.0 0.0 0.00 0.00 0.00 10
20260506121405 79 0 0.0 0.0 0.00 0.00 0.00 10
20260506115405 77 0 0.0 0.0 0.00 0.00 0.00 10
20260506114403 76 0 0.0 0.0 0.00 0.00 0.00 10
20260506113403 75 0 0.0 0.0 0.00 0.00 0.00 13
20260506112404 73 0 0.0 0.0 0.00 0.00 0.00 24
20260506111403 72 0 0.0 0.0 0.00 0.00 0.00 25
20260506110404 71 0 0.0 0.0 0.00 0.00 0.00 25
20260506105404 71 0 0.0 0.0 0.00 0.00 0.00 26
20260506104403 72 0 0.0 0.0 0.00 0.00 0.00 26
20260506103405 69 0 0.0 0.0 0.00 0.00 0.00 34
20260506102404 69 0 0.0 0.0 0.00 0.00 0.00 42
20260506101406 68 0 0.0 0.0 0.00 0.00 0.00 44
20260506100404 67 0 0.0 0.0 0.00 0.00 0.00 44
20260506095406 67 0 0.0 0.0 0.00 0.00 0.00 46
20260506092403 66 0 0.0 0.0 0.00 0.00 0.00 45
20260506090404 66 0 0.0 0.0 0.00 0.00 0.00 38
20260506085403 66 0 0.0 0.0 0.00 0.00 0.00 40
20260506084405 66 0 0.0 0.0 0.00 0.00 0.00 39
20260506083403 66 0 0.0 0.0 0.00 0.00 0.00 36
20260506082403 66 0 0.0 0.0 0.00 0.00 0.00 36
20260506081405 66 0 0.0 0.0 0.00 0.00 0.00 36
20260506080404 65 0 0.0 0.0 0.00 0.00 0.00 37
20260506073403 64 0 0.0 0.0 0.00 0.00 0.00 40
20260506072404 64 0 0.0 0.0 0.00 0.00 0.00 40
20260506071403 64 0 0.0 0.0 0.00 0.00 0.00 43
20260506070405 63 0 0.0 0.0 0.00 0.00 0.00 44
20260506043405 52 0 0.0 0.0 0.00 0.00 0.00 69
20260506042404 53 0 0.0 0.0 0.00 0.00 0.00 67
20260506041405 52 0 0.0 0.0 0.00 0.00 0.00 64
20260506035406 53 0 0.0 0.0 0.00 0.00 0.00 62
20260506034405 53 0 0.0 0.0 0.00 0.00 0.00 63
20260506033403 52 0 0.0 0.0 0.00 0.00 0.00 61
20260506032404 53 0 0.0 0.0 0.00 0.00 0.00 60
20260506031403 53 0 0.0 0.0 0.00 0.00 0.00 60
20260506030404 53 0 0.0 0.0 0.00 0.00 0.00 61
20260506025404 53 0 0.0 0.0 0.00 0.00 0.00 58
20260506024405 54 0 0.0 0.0 0.00 0.00 0.00 56
20260506023404 55 0 0.0 0.0 0.00 0.00 0.00 60
20260506022404 54 0 0.0 0.0 0.00 0.00 0.00 60
20260506021405 54 0 0.0 0.0 0.00 0.00 0.00 60
20260506020405 55 0 0.0 0.0 0.00 0.00 0.00 62
20260506015404 54 0 0.0 0.0 0.00 0.00 0.00 63
20260506014404 54 0 0.0 0.0 0.00 0.00 0.00 62
20260506012405 54 0 0.0 0.0 0.00 0.00 0.00 64
20260506011405 54 0 0.0 0.0 0.00 0.00 0.00 60
20260506010405 55 0 0.0 0.0 0.00 0.00 0.00 60
20260506005404 55 0 0.0 0.0 0.00 0.00 0.00 56
20260506004405 56 0 0.0 0.0 0.00 0.00 0.00 54
20260506003404 56 0 0.0 0.0 0.00 0.00 0.00 56
20260506002404 56 0 0.0 0.0 0.00 0.00 0.00 59
20260506001404 56 0 0.0 0.0 0.00 0.00 0.00 60
20260506000406 56 0 0.0 0.0 0.00 0.00 0.00 60
20260505235404 56 0 0.0 0.0 0.00 0.00 0.00 61
20260505234404 56 0 0.0 0.0 0.00 0.00 0.00 61
20260505233403 56 0 0.0 0.0 0.00 0.00 0.00 62
20260505232404 57 0 0.0 0.0 0.00 0.00 0.00 60
20260505231404 57 0 0.0 0.0 0.00 0.00 0.00 64
20260505225404 57 0 0.0 0.0 0.00 0.00 0.00 66
20260505224404 57 0 0.0 0.0 0.00 0.00 0.00 68
20260505223403 57 0 0.0 0.0 0.00 0.00 0.00 68
20260505222403 56 0 0.0 0.0 0.00 0.00 0.00 65
20260505221404 58 0 0.0 0.0 0.00 0.00 0.00 72
20260505220405 58 0 0.0 0.0 0.00 0.00 0.00 72
20260505215404 57 0 0.0 0.0 0.00 0.00 0.00 73
20260505214404 57 0 0.0 0.0 0.00 0.00 0.00 73
20260505213404 57 0 0.0 0.0 0.00 0.00 0.00 68
20260505212404 58 0 0.0 0.0 0.00 0.00 0.00 70
20260505211405 58 0 0.0 0.0 0.00 0.00 0.00 70
20260505210404 58 0 0.0 0.0 0.00 0.00 0.00 69
20260505205405 59 0 0.0 0.0 0.00 0.00 0.00 70
20260505204404 59 0 0.0 0.0 0.00 0.00 0.00 70
20260505203405 59 0 0.0 0.0 0.00 0.00 0.00 73
20260505201406 59 0 0.0 0.0 0.00 0.00 0.00 68
20260505193404 59 0 0.0 0.0 0.00 0.00 0.00 73
20260505192404 60 0 0.0 0.0 0.00 0.00 0.00 71
20260505191403 60 0 0.0 0.0 0.00 0.00 0.00 68
20260505185403 61 0 0.0 0.0 0.00 0.00 0.00 74
20260505183403 60 0 0.0 0.0 0.00 0.00 0.00 70
20260505182403 61 0 0.0 0.0 0.00 0.00 0.00 67
20260505181405 62 0 0.0 0.0 0.00 0.00 0.00 63
20260505180403 62 0 0.0 0.0 0.00 0.00 0.00 63
20260505175403 63 0 0.0 0.0 0.00 0.00 0.00 58
20260505173403 65 0 0.0 0.0 0.00 0.00 0.00 54
20260505172405 65 0 0.0 0.0 0.00 0.00 0.00 53
20260505171405 65 0 0.0 0.0 0.00 0.00 0.00 57
20260505170405 64 0 0.0 0.0 0.00 0.00 0.00 57
20260505165405 64 0 0.0 0.0 0.00 0.00 0.00 55
20260505164405 64 0 0.0 0.0 0.00 0.00 0.00 53
20260505163404 65 0 0.0 0.0 0.00 0.00 0.00 51
20260505162405 65 0 0.0 0.0 0.00 0.00 0.00 50
20260505160406 66 0 0.0 0.0 0.00 0.00 0.00 47